TimeCST,TemperatureF,Dew PointF,Humidity,Sea Level PressureIn,VisibilityMPH,Wind Direction,Wind SpeedMPH,Gust SpeedMPH,PrecipitationIn,Events,Conditions,WindDirDegrees,DateUTC
12:55 AM,24.1,21.0,88,30.25,10.0,North,16.1,-,N/A,,Overcast,350,2013-02-28 06:55:00
1:55 AM,24.1,19.9,84,30.26,10.0,NNW,12.7,-,N/A,,Overcast,340,2013-02-28 07:55:00
2:55 AM,21.9,18.0,85,30.26,10.0,NNW,17.3,-,N/A,,Overcast,330,2013-02-28 08:55:00
3:55 AM,21.0,17.1,85,30.26,10.0,NNW,13.8,-,N/A,,Overcast,340,2013-02-28 09:55:00
4:55 AM,19.9,17.1,89,30.27,10.0,NNW,13.8,-,N/A,,Overcast,340,2013-02-28 10:55:00
5:55 AM,19.9,17.1,89,30.28,10.0,NNW,13.8,-,N/A,,Overcast,340,2013-02-28 11:55:00
6:55 AM,19.0,16.0,88,30.30,10.0,North,11.5,-,N/A,,Overcast,350,2013-02-28 12:55:00
7:55 AM,19.0,16.0,88,30.30,10.0,North,13.8,-,N/A,,Overcast,350,2013-02-28 13:55:00
8:55 AM,19.0,15.1,85,30.33,10.0,NW,11.5,-,N/A,,Overcast,320,2013-02-28 14:55:00
9:15 AM,19.4,15.8,86,30.27,10.0,NNW,11.5,-,N/A,,Overcast,330,2013-02-28 15:15:00
9:55 AM,19.0,15.1,85,30.33,10.0,NNW,12.7,-,N/A,,Overcast,330,2013-02-28 15:55:00
10:55 AM,21.0,16.0,81,30.33,10.0,NNW,11.5,-,N/A,,Overcast,340,2013-02-28 16:55:00
11:55 AM,21.9,17.1,82,30.33,10.0,North,11.5,-,N/A,,Overcast,360,2013-02-28 17:55:00
12:55 PM,23.0,18.0,81,30.32,10.0,North,11.5,-,N/A,,Overcast,350,2013-02-28 18:55:00
1:55 PM,25.0,19.0,78,30.31,10.0,North,13.8,-,N/A,,Overcast,350,2013-02-28 19:55:00
2:30 PM,24.8,19.4,80,30.24,10.0,NNW,11.5,-,N/A,,Overcast,330,2013-02-28 20:30:00
2:55 PM,26.1,21.0,81,30.29,10.0,NNW,10.4,-,N/A,,Overcast,340,2013-02-28 20:55:00
3:18 PM,26.6,21.2,80,30.23,10.0,North,12.7,-,N/A,,Overcast,350,2013-02-28 21:18:00
3:55 PM,26.1,21.0,81,30.30,10.0,North,11.5,-,N/A,,Overcast,350,2013-02-28 21:55:00
4:55 PM,25.0,19.9,81,30.31,10.0,North,12.7,-,N/A,,Overcast,350,2013-02-28 22:55:00
5:55 PM,25.0,19.9,81,30.32,10.0,North,9.2,-,N/A,,Overcast,10,2013-02-28 23:55:00
6:48 PM,24.8,19.4,80,30.26,10.0,North,9.2,-,N/A,,Overcast,350,2013-03-01 00:48:00
6:55 PM,25.0,19.9,81,30.33,10.0,NNW,11.5,-,N/A,,Overcast,340,2013-03-01 00:55:00
7:55 PM,24.1,19.0,81,30.33,10.0,North,10.4,-,N/A,,Overcast,360,2013-03-01 01:55:00
8:55 PM,23.0,19.0,85,30.34,10.0,North,9.2,-,N/A,,Overcast,360,2013-03-01 02:55:00
9:55 PM,23.0,18.0,81,30.33,10.0,North,9.2,-,N/A,,Overcast,360,2013-03-01 03:55:00
10:55 PM,23.0,17.1,78,30.33,10.0,North,9.2,-,N/A,,Overcast,10,2013-03-01 04:55:00
11:55 PM,23.0,17.1,78,30.34,10.0,NNW,5.8,-,N/A,,Overcast,340,2013-03-01 05:55:00